Simultaneous Nadir Overpasses (SNOs) Predictions

Prediction of SNOs between GOES-16 and AQUA Satellite Orbit:

Table of predicted SNOs for the next 14.0 days since TLE Epoch: 9/17/2022
Index Date Time (GOES-16) GOES-16 Lat,Lon AQUA Lat,Lon Distance(km) Time Diff (sec)
1 09/18/2022 06:32:50 0.05, -75.20 -0.34, -73.45 198.80 80
2 09/18/2022 18:54:05 -0.04, -75.21 -0.74, -78.61 386.17 80
3 09/20/2022 18:41:21 -0.03, -75.22 -0.11, -75.50 33.07 80
4 09/22/2022 18:31:18 -0.02, -75.23 0.55, -72.41 320.88 80
5 09/23/2022 06:52:25 0.02, -75.23 0.50, -77.53 261.70 80
6 09/25/2022 06:37:01 0.02, -75.25 -0.18, -74.44 93.37 80
7 09/25/2022 18:58:16 -0.01, -75.27 -0.94, -79.59 491.08 80
8 09/27/2022 06:24:16 0.02, -75.28 -0.82, -71.33 449.11 80
9 09/27/2022 18:45:31 -0.02, -75.30 -0.29, -76.48 135.14 80
10 09/29/2022 18:35:26 -0.02, -75.33 0.37, -73.38 221.12 80
11 09/30/2022 06:56:34 0.02, -75.33 0.67, -78.51 360.83 80
